Zurück zum Katalog

CZ-6A R/B

AktivSSO
NORAD 52152·ROCKET BODY·🇨🇳 China

Gestartet Mar 29, 2022 von Taiyuan Satellite Launch Center

Loading…

Nächste Überflüge (nächste 24 Stunden)

TLE

AktuellSource: Space-Track

Epoche: Sep 14, 2026, 02:12 UTC

1 52152U 22031C   26257.09223438  .00001105  00000-0  75588-4 0  9990
2 52152  97.7925 104.2561 0015813 267.0934  92.8484 15.08184614244704

Verfolge CZ-6A R/B in Echtzeit mit AllMySat

Download on the App Store